Location: Zagreb
(45.8000°N, 16.0000°E)
Time: 23:49:38
(UTC+01:00)

Transit 2A Rocket - Pass Details

Date: 04 October 2020
Orbit: 586 x 916 km, 66.7° (Epoch: 27 October)

Event Time Altitude Azimuth Distance (km) Brightness Sun altitude
Rises 01:33:16 0° 324° (NW) 3,401 8.7 -47.3°
Enters shadow 01:33:20 - 324° (NW) 3,374 8.7 -47.3°
Reaches altitude 10° 01:35:52 10° 321° (NW) 2,414 - -47.2°
Maximum altitude 01:41:18 60° 243° (WSW) 869 - -46.8°
Drops below altitude 10° 01:46:12 10° 164° (SSE) 2,179 - -46.5°
Sets 01:48:26 0° 160° (SSE) 3,043 - -46.4°
